Location: Dead Woman Crossing
(43.5369°N, 106.3228°W)
Time: 22:16:37
(UTC+00:00)

NANOSAT C BR1 - Pass Details

Date: 02 July 2022
Orbit: 584 x 599 km, 98.0° (Epoch: 18 August)

Event Time Altitude Azimuth Distance (km) Brightness Sun altitude
Rises 09:21:46 0° 11° (NNE) 2,851 ? -16.8°
Reaches altitude 10° 09:23:56 10° 11° (N) 1,946 ? -16.6°
Maximum altitude 09:28:10 79° 285° (WNW) 616 ? -16.2°
Enters shadow 09:30:15 29° 202° (SSW) 1,101 ? -16.0°
